Regional Weather Roundup
Issued by NWS

Home | Current Version | Previous Version | Graphics & Text | Print | Product List | Glossary Off
Versions: 1 2 3 4 5 6 7 8 9 10 11 12 13 14 15 16 17 18 19 20 21 22 23 24 25 26 27 28 29 30 31 32 33 34 35 36 37 38 39 40 41 42 43 44 45 46 47 48 49 50

000
ASUS43 KMKX 260210
RWRWI

WISCONSIN REGIONAL WEATHER ROUNDUP
NATIONAL WEATHER SERVICE MILWAUKEE/SULLIVAN WI
900 PM CDT WED APR 25 2018

NOTE: "FAIR" INDICATES FEW OR NO CLOUDS BELOW 12,000 FEET WITH NO
SIGNIFICANT WEATHER AND/OR OBSTRUCTIONS TO VISIBILITY.

WIZ001-002-006>008-014>016-023>028-260300-
NORTHWEST WISCONSIN

CITY           SKY/WX    TMP DP  RH WIND       PRES   REMARKS
SUPERIOR ARPT  FAIR      40  27  59 CALM      29.94F
ASHLAND        FAIR      36  27  69 W3        29.96F
HAYWARD        FAIR      43  24  47 CALM      29.97F
SIREN          FAIR      44  23  43 CALM      29.98S
CUMBERLAND     FAIR      43  30  61 S5        29.98F
RICE LAKE      FAIR      44  28  54 CALM      30.00F
CHETEK         FAIR      42  26  52 S6        29.99F
LADYSMITH      FAIR      42  31  66 SW5       30.01S
EAU CLAIRE     FAIR      47  26  44 CALM      30.00R
MENOMONIE      FAIR      52  24  33 CALM      30.00S
NEW RICHMOND   FAIR      45  26  48 CALM      29.99F
OSCEOLA        FAIR      45  29  53 CALM      30.01S
$$

WIZ003>005-009-010-017-018-260300-
NORTH CENTRAL WISCONSIN

CITY           SKY/WX    TMP DP  RH WIND       PRES   REMARKS
MANITOWISH WTR FAIR      36  22  56 CALM      29.97F
ARBOR VITAE    FAIR      42  24  49 CALM      29.98F
WOODRUFF       FAIR      42  24  49 CALM      29.98F
RHINELANDER    FAIR      38  22  52 CALM      29.99F
EAGLE RIVER    FAIR      36  18  47 CALM      29.98F
LAND O LAKES   FAIR      35  20  54 CALM      30.00F
PHILLIPS       FAIR      40  24  51 CALM      29.98S
TOMAHAWK       FAIR      36  24  64 CALM      30.00S
MEDFORD        FAIR      44  29  56 CALM      29.99S
MERRILL        FAIR      41  27  57 CALM      30.00S
$$

WIZ029-030-035-036-043>047-260300-
CENTRAL WISCONSIN

CITY           SKY/WX    TMP DP  RH WIND       PRES   REMARKS
WAUSAU         FAIR      46  25  43 CALM      29.98S
MOSINEE        PTCLDY    48  25  40 W6        30.01S
MARSHFIELD     FAIR      47  30  51 CALM      29.99S
STEVENS POINT  FAIR      42  28  58 CALM      30.01S
WAUPACA        FAIR      47  32  56 CALM      30.00F
WAUTOMA        FAIR      42  33  70 CALM      30.01F
WISC RAPIDS    FAIR      42  28  57 CALM      30.01S
CAMP DOUGLAS   PTCLDY    43  28  56 CALM      30.00S
$$

WIZ011>013-019>022-031-037>040-048>050-260300-
NORTHEAST WISCONSIN

CITY           SKY/WX    TMP DP  RH WIND       PRES   REMARKS
ANTIGO         FAIR      41  31  68 CALM      30.00R
SHAWANO        FAIR      46  29  51 CALM      29.99S
OCONTO         FAIR      38  31  73 S3        30.02R
STURGEON BAY   FAIR      38  28  67 SE5       30.02S WCI  34
GREEN BAY      FAIR      46  35  65 SE9       30.01R
MANITOWOC      FAIR      39  28  64 CALM      30.04S
APPLETON       PTCLDY    45  27  49 S6        29.99F
CLINTONVILLE   FAIR      46  29  53 SW3       30.00S
OSHKOSH        FAIR      45  32  60 S3        30.00F
$$

WIZ032>034-041-042-053>061-260300-
SOUTHWEST WISCONSIN

CITY           SKY/WX    TMP DP  RH WIND       PRES   REMARKS
LA CROSSE      FAIR      49  28  44 CALM      30.00S
SPARTA         FAIR      44  31  59 CALM      30.02S
VIROQUA        FAIR      51  30  44 CALM      30.01R
BOSCOBEL       FAIR      49  32  52 CALM      30.01R
PRAIRIE DU CHI FAIR      51  28  40 CALM      30.00S
PLATTEVILLE    FAIR      53  31  42 CALM      30.00S
$$

WIZ056-057-062-063-064-067-068-260300-
SOUTH CENTRAL WISCONSIN

CITY           SKY/WX    TMP DP  RH WIND       PRES   REMARKS
REEDSBURG      FAIR      49  29  46 CALM      30.00S
BARABOO/DELLS  FAIR      46  26  45 CALM      30.00S
LONE ROCK      FAIR      45  32  60 E3        30.00S
MINERAL POINT  FAIR      54  27  35 NE3       30.00S
MADISON        FAIR      48  28  46 VRB3      30.01R
MIDDLETON      FAIR      47  32  55 CALM      30.02R
WATERTOWN      FAIR      44  32  63 E6        30.02R
MONROE         FAIR      52  27  37 NE3       30.00S
JANESVILLE     FAIR      46  32  57 SE8       30.01R
$$

WIZ051-052-058>065-066-070>072-260300-
SOUTHEAST WISCONSIN

CITY           SKY/WX    TMP DP  RH WIND       PRES   REMARKS
MILWAUKEE      FAIR      40  28  62 CALM      30.04F
WAUKESHA       CLEAR     39  27  60 E6        30.04S WCI  35
MILWAUKEE/TIMM CLEAR     39  25  56 CALM      30.05S
RACINE         FAIR      38  29  70 N3        30.06S
BURLINGTON     FAIR      39  28  66 E6        30.04S WCI  34
KENOSHA        FAIR      36  27  69 NE5       30.04S WCI  32
FOND DU LAC    FAIR      43  28  55 S3        30.01S
SHEBOYGAN      FAIR      36  29  75 CALM      30.03S
WEST BEND      FAIR      37  28  70 SE3       30.03S
JUNEAU         FAIR      46  32  59 CALM      30.03R
$$

LSZ147-162-260300-
LAKE SUPERIOR

STATION/POSITION TIME  TEMP    WIND        PRES    WAVE
                       AIR SEA DIR/SP/G            HT/PER
                 (UTC) (F)     (DEG/KT/KT) (MB)    (FT/S)
DEVILS ISLAND    0200   47     170/ 10/ 12 1014.5F
SAXON HARBOR     0140   38     190/  3/  3 1013.9F
$$

LMZ867-665-643>646-260300-
LAKE MICHIGAN

STATION/POSITION TIME  TEMP    WIND        PRES    WAVE
                       AIR SEA DIR/SP/G            HT/PER
                 (UTC) (F)     (DEG/KT/KT) (MB)    (FT/S)
NORTHPORT PIER   0140   38                 1016.3S
KEWAUNEE LAKESHO 0142   41     200/  5/  6 1016.2R
SHEBOYGAN LAKESH 0200   40     190/  3/  3 1017.5S
PORT WASHINGTON  0140   40     200/  1/  3 1018.3S
MILWAUKEE LAKESH 0150   39        CALM       N/A
KENOSHA   LAKESH 0200   40                 1017.3
$$

TC  - TEMPERATURE IN CELSIUS
VSB - VISIBILITY IN STATUTE MILES
WCI - WIND CHILL INDEX
HX  - HEAT INDEX





USA.gov is the U.S. government's official web portal to all federal, state and local government web resources and services.